Lucknow / Amausi, India

3:21 PM IST on December 06, 2016 (GMT +0530)
Lucknow

Weather History for VILK - January, 2013

Change the Weather History Date:

Saturday, January 26, 2013

  Actual Average Record
Temperature  
Mean Temperature 53 °F -  
Max Temperature 72 °F 70 °F 82 °F (2009)
Min Temperature 34 °F 49 °F 34 °F (2013)
Degree Days  
Heating Degree Days 12    
Growing Degree Days 3 (Base 50)    
Moisture  
Dew Point 43 °F    
Average Humidity 69    
Maximum Humidity 100    
Minimum Humidity 29    
Precipitation  
Precipitation 0.00 in - - ()
Sea Level Pressure  
Sea Level Pressure 30.07 in    
Wind  
Wind Speed 3 mph ()    
Max Wind Speed 10 mph    
Max Gust Speed -    
Visibility 2.1 miles    
Events Fog    
Averages and records for this station are not official NWS values.
T = Trace of Precipitation, MM = Missing Value Source: Averaged Metar Reports

Daily Weather History Graph

Daily Weather History Graph

Search for Another Location

Airport or City:

Trip Planner

Search our weather history database for the weather conditions in past years. The results will help you decide how hot, cold, wet, or windy it might be!

Date:

Astronomy

Jan. 26, 2013 Rise Set
Actual Time 6:54 AM IST 5:43 PM IST
Civil Twilight 6:29 AM IST 6:08 PM IST
Nautical Twilight 6:01 AM IST 6:36 PM IST
Astronomical Twilight 5:34 AM IST 7:04 PM IST
Moon 5:08 PM IST (1/26) 5:55 AM IST (1/26)
Length of Visible Light 11h 38m
Length of Day
10h 49m
Waxing Gibbous, 99% of the Moon is Illuminated
Jan 26
Waxing Gibbous
Jan 27
Full
Feb 3
Last Quarter
Feb 10
New
Feb 18
First Quarter

Hourly Weather History & Observations

Time (IST) Temp. Dew Point Humidity Pressure Visibility Wind Dir Wind Speed Gust Speed Precip Events Conditions
1:00 AM 48.2 °F 48.2 °F 100% 30.06 in - Variable 2.3 mph - N/A Fog Fog
2:00 AM 46.4 °F 46.4 °F 100% 30.06 in - Calm Calm - N/A Fog Fog
2:30 AM 46 °F 46 °F 100% 30.09 in 0 mi 2.3 mph - - Fog Heavy Fog
3:00 AM 44.6 °F 44.6 °F 100% 30.06 in - Variable 2.3 mph - N/A Fog Fog
4:00 AM 44.6 °F 44.6 °F 100% 30.06 in - Calm Calm - N/A Fog Fog
5:00 AM 42.8 °F 42.8 °F 100% 30.06 in - Calm Calm - N/A Fog Fog
5:30 AM 41 °F 41 °F 100% 30.10 in 0 mi Calm Calm - - Fog Heavy Fog
6:00 AM 39.2 °F 39.2 °F 100% 30.06 in - Calm Calm - N/A Fog Fog
6:30 AM 39.2 °F 39.2 °F 100% 30.06 in - Calm Calm - N/A Fog Fog
7:00 AM 37.4 °F 37.4 °F 100% 30.06 in - Calm Calm - N/A Fog Fog
7:30 AM 39.2 °F 37.4 °F 93% 30.09 in 0.0 mi Calm Calm - N/A Fog Fog
8:30 AM 49 °F 44 °F 76% 30.14 in 1 mi WNW 4.6 mph - -   Mist
9:30 AM 53.6 °F 44.6 °F 72% 30.12 in 1.1 mi West 5.8 mph - N/A   Haze
11:30 AM 66 °F 46 °F 37% 30.13 in 1 mi WNW 9.2 mph - -   Haze
12:00 PM 68.0 °F 42.8 °F 40% 30.09 in 2.5 mi WNW 10.4 mph - N/A   Haze
2:00 PM 69.8 °F 42.8 °F 38% 30.04 in 3.7 mi WNW 9.2 mph - N/A   Unknown
2:30 PM 71.6 °F 42.8 °F 35% 30.04 in 3.7 mi WNW 9.2 mph - N/A   Unknown
3:00 PM 71.6 °F 42.8 °F 35% 30.04 in 3.7 mi WNW 9.2 mph - N/A   Unknown
3:30 PM 71.6 °F 41.0 °F 33% 30.04 in 3.7 mi WNW 8.1 mph - N/A   Unknown
4:00 PM 69.8 °F 39.2 °F 33% 30.04 in 3.7 mi WNW 8.1 mph - N/A   Unknown
4:30 PM 69.8 °F 41.0 °F 35% 30.04 in 3.7 mi WNW 8.1 mph - N/A   Unknown
5:00 PM 68.0 °F 41.0 °F 37% 30.04 in 3.7 mi West 8.1 mph - N/A   Unknown
5:30 PM 68 °F 43 °F 29% 30.05 in 2 mi WNW 5.8 mph - -  
5:30 PM 68.0 °F 42.8 °F 40% 30.04 in 3.7 mi WNW 5.8 mph - N/A   Unknown
6:30 PM 62.6 °F 48.2 °F 59% 30.04 in 2.5 mi Variable 2.3 mph - N/A   Haze
7:30 PM 57.2 °F 46.4 °F 67% 30.06 in 1.9 mi Variable 2.3 mph - N/A   Haze
8:00 PM 55.4 °F 46.4 °F 72% 30.06 in 1.6 mi Calm Calm - N/A   Haze
8:30 PM 54 °F 45 °F 63%  in 1 mi SW 3.5 mph - -   Mist
8:30 PM 53.6 °F 44.6 °F 72% 30.06 in 1.6 mi WSW 3.5 mph - N/A   Haze
9:00 PM 51.8 °F 44.6 °F 76% 30.06 in 1.2 mi Variable 2.3 mph - N/A   Mist
11:00 PM 50.0 °F 44.6 °F 82% 30.06 in 0.9 mi Variable 2.3 mph - N/A   Mist